Home   Weather   31°09'N, 83°47'W   Past weeks
Flag for USA

Past Weather in 31°09'N, 83°47'W, USA — Yesterday and Last 2 Weeks

Now
74 °F

Light rain. Passing clouds.


Feels Like: 73 °F
Forecast: 78 / 63 °F
Wind: 10 mph from Southwest

Location: Valdosta Regional

Current Time: Oct 19, 2019 at 9:59:49 pm

Latest Report: Oct 19, 2019 at 9:05 pm


Visibility: 7 mi

Pressure: 29.64 "Hg

Humidity: 88%

Dew Point: 70 °F

Location of 31°09'N, 83°47'WLocation

Past Weather in 31°09'N, 83°47'W — Graph

°F

31°09'N, 83°47'W Temperature Yesterday

Maximum temperature yesterday: 71 °F (at 1:53 pm)
Minimum temperature yesterday: 54 °F (at 2:53 am)
Average temperature yesterday: 63 °F

High & Low Weather Summary for the Past Weeks

 TemperatureHumidityPressure
High91 °F (Oct 5, 4:53 pm)97% (Oct 5, 5:53 am)30.14 "Hg (Oct 5, 5:53 am)
Low52 °F (Oct 17, 5:53 am)31% (Oct 11, 4:53 pm)29.59 "Hg (Oct 19, 5:23 pm)
Average73 °F75%30.00 "Hg
* Reported Oct 4 7:53 pm — Oct 19 7:53 pm, 31°09'N, 83°47'W. Weather by CustomWeather, © 2019

Note: Actual official high and low records may vary slightly from our data, if they occured in-between our weather recording intervals... More about our weather records

Advertising

31°09'N, 83°47'W Weather History for the Previous 24 Hours

Scroll right to see more
 ConditionsComfort  
Time TempWeatherWind HumidityBarometerVisibility
7:53 pm
Sat, Oct 19
77 °FOvercast.13 mph85%29.64 "Hg10 mi
7:24 pm77 °FOvercast.9 mph88%29.61 "Hg10 mi
6:53 pm78 °FPartly sunny.12 mph87%29.62 "Hg10 mi
6:34 pm78 °FPartly sunny.10 mph87%29.59 "Hg10 mi
5:53 pm78 °FCloudy.10 mph87%29.61 "Hg10 mi
5:23 pm78 °FMostly cloudy.14 mph87%29.59 "Hg10 mi
4:21 pm77 °FLight rain. Mostly cloudy.16 mph88%29.60 "Hg8 mi
4:11 pm77 °FHeavy rain. Fog.15 mph88%29.61 "Hg2 mi
3:53 pm77 °FLight rain. Cloudy.12 mph88%29.64 "Hg8 mi
3:38 pm77 °FLight rain. Cloudy.9 mph88%29.62 "Hg8 mi
2:53 pm79 °FOvercast.15 mph77%29.67 "Hg10 mi
1:53 pm77 °FOvercast.10 mph82%29.70 "Hg10 mi
12:53 pm75 °FOvercast.9 mph85%29.75 "Hg10 mi
12:10 pm73 °FLight rain. More clouds than sun.14 mph88%29.76 "Hg10 mi
11:53 am73 °FLight rain. Mostly cloudy.13 mph88%29.79 "Hg10 mi
11:10 am72 °FLight rain. Fog.10 mph91%29.78 "Hg4 mi
10:53 am72 °FOvercast.13 mph87%29.80 "Hg9 mi
10:09 am72 °FMostly cloudy.12 mph87%29.80 "Hg10 mi
9:42 am71 °FLow clouds.10 mph87%29.80 "Hg10 mi
9:07 am70 °FMostly cloudy.9 mph90%29.80 "Hg10 mi
8:53 am70 °FMostly cloudy.9 mph90%29.82 "Hg10 mi
7:53 am70 °FLight rain. Low clouds.13 mph90%29.82 "Hg10 mi
6:53 am69 °FLight rain. Mostly cloudy.10 mph93%29.81 "Hg10 mi
5:53 am68 °FMostly cloudy.9 mph93%29.82 "Hg10 mi
4:53 am67 °FLight rain. Mostly cloudy.9 mph93%29.83 "Hg10 mi
4:04 am66 °FLight rain. Mostly cloudy.8 mph90%29.83 "Hg10 mi
3:53 am66 °FLight rain. Overcast.8 mph90%29.85 "Hg8 mi
2:53 am64 °FLight rain. Mostly cloudy.6 mph90%29.86 "Hg8 mi
1:53 am64 °FLight rain. Passing clouds.7 mph87%29.88 "Hg10 mi
12:53 am64 °FLight rain. Passing clouds.6 mph87%29.91 "Hg10 mi
11:53 pm
Fri, Oct 18
64 °FRain. Passing clouds.6 mph84%29.93 "Hg9 mi
10:53 pm65 °FLight rain. Passing clouds.6 mph78%29.93 "Hg10 mi
9:53 pm67 °FLight rain. Passing clouds.8 mph71%29.92 "Hg10 mi
Weather by CustomWeather, © 2019

See weather overview